Wall of Fame

Het Mysterie van de Haven

Groepsnaam Tijd over Aantal hints
1 SlotvoorSchuifwerktNiet 01:49:49 0
2 Femke en anouk 01:49:36 0
3 Framily II 01:49:35 0
4 De Brabo's 01:47:55 0
5 Kluitland 01:46:16 3
6 Geri 01:20:02 3
7 Unicorns 01:13:18 0
8 Cock and Ballzz 01:11:15 0
9 Zegwat 01:11:13 6
10 Out of the Box 01:10:45 0
11 Malestein 01:10:20 0
12 Team 414 01:09:44 3
13 Bijna sexy 01:09:12 0
14 Toevankjes 01:08:34 1
15 Jut en Juul 01:08:32 1
16 Th'Eltons 01:07:44 0
17 Majomiri 01:07:15 0
18 autobuddys 01:06:54 0
19 Wollys 01:06:24 0
20 Vogelbuurt 01:05:09 0
21 Blekbal 01:04:20 4
22 Bestuur Panacea 2018 01:03:41 0
23 De mannen Dalfsen 01:03:39 0
24 Vivino's 01:02:35 0
25 Wilde jongelingen 01:01:14 0
26 Da potato family 01:00:30 3
27 Mathaak 01:00:29 0
28 De Flitsmeisters 01:00:23 1
29 Mulder en co 00:59:57 0
30 Havenmeesters van de matestraat 00:59:39 0
31 SmartBarth 00:59:09 0
32 TOG op pad 00:58:30 0
33 Theetop 00:56:54 0
34 Zeeslagje 00:56:42 0
35 Bull 00:56:18 0
36 Bouma’s 00:55:30 0
37 De Noorderlingen 2 00:55:27 2
38 The Turning Bitches 00:55:15 0
39 Tantalus 00:54:40 4
40 De withaartjes 00:54:37 0
41 Jozuahaaltdesnacks 00:54:18 0
42 Spruitjes 00:54:06 1
43 Eliteam 00:53:16 0
44 NYE_Toppers! 00:53:03 0
45 DeKraaien 00:52:45 0
46 Gilse Club 00:52:27 3
47 Masters van Web 00:52:19 0
48 De zilveruitjes 00:52:07 0
49 Bruggies 00:52:04 2
50 MAK Search Team 00:51:54 1
51 VEM 00:51:36 2
52 The Black Purrrr 00:51:21 3
53 Uildriks 00:51:15 0
54 De Streek 00:50:50 1
55 Marina's Bultjes 00:50:37 0
56 Rijn 00:49:57 3
57 Commissaris Blauw 32 00:49:54 0
58 Casper&Cheyenne 00:49:50 0
59 De Leo’s 00:49:40 0
60 Clown Kees 00:49:35 0
61 Van Essen 00:49:17 2
62 Schoorlsafari 00:49:04 0
63 De wilde Vaart 00:48:42 0
64 Teddje 00:48:10 2
65 Groenevelt 00:48:07 0
66 Bolk 00:48:03 0
67 De blokk 00:47:58 0
68 The GinkelSquad 00:47:47 0
69 Spijkerrevanche 00:47:45 7
70 Het karige hutje 00:47:31 1
71 zalk 00:46:57 2
72 Team Rijnsburg 00:46:50 0
73 Sinterkerstennieuw 00:46:49 0
74 Tukkers Nieland 00:46:41 1
75 GreenDucks 00:46:32 2
76 Team de paddenstoel 00:46:30 0
77 The Escapistaches 00:46:30 0
78 De vochtige Ari’s 00:46:25 0
79 Doarseveld 00:46:14 3
80 De avocado's 00:46:01 1
81 De Feunen 00:45:59 1
82 FC RISC 00:45:56 0
83 De fraudeurs 00:45:46 12
84 De Engeltjes 00:45:45 3
85 Kroese 00:45:36 0
86 Kempertjes 00:45:28 2
87 Hagen 00:45:26 0
88 Vinkentroep 00:45:07 0
89 Hazelnootjes 00:45:06 0
90 Frituurhapjesmix 00:44:57 0
91 De Nachtbrakers 00:44:54 1
92 joGoJoGo 00:44:43 1
93 HoogeVenlo 00:44:39 2
94 Hsj 00:44:29 10
95 TeamXBeks 00:44:25 5
96 The Rabbits 00:43:59 0
97 M&M 00:43:52 3
98 De van der Bentjes 00:43:50 7
99 te pakk'n 00:43:47 0
100 Met z'n biertjes 00:43:27 0
101 De leeuwen 00:43:19 3
102 Boekenpootje 00:43:18 1
103 De Akkermannen 00:43:13 1
104 De Loser Champignons 00:43:12 2
105 Bruintjes 00:43:05 2
106 Flying mountains 00:42:49 0
107 Mark&Simone 00:42:47 0
108 Yahra 00:42:47 4
109 Zandberguh 00:42:43 0
110 Wenterse genieters 00:42:42 1
111 De drie koffieriers 00:42:42 1
112 Zijlmaatjes 00:42:27 4
113 Koeienlovers 00:41:43 2
114 De dikke bankzitters 00:41:42 4
115 Bungalow Xxx 00:41:41 0
116 De wijsneuzen 00:41:29 1
117 Caljé 00:41:20 5
118 Glas 00:41:12 1
119 Tovernaars 00:41:03 10
120 Groepje 00:40:58 2
121 MvAVermaak.nl 00:40:53 1
122 De Strikwerda's 00:40:52 3
123 Team Detective 00:40:46 0
124 Paashaas 00:40:31 5
125 Beers Bitches 00:40:31 0
126 De Frikandellengang! 00:40:09 0
127 Remida 00:40:08 2
128 Familyfuntime 00:40:04 1
129 BoekholtBende 00:40:04 1
130 Bro’s before ho’s 00:40:03 0
131 The Jaggermen 00:39:55 0
132 ThoJo 00:39:47 2
133 De Killers v2 00:39:33 0
134 Flanmika Rijssen 00:39:21 0
135 SiJiSen 00:39:15 1
136 zeelsterhut 00:39:14 0
137 De sjeezers 00:39:11 1
138 Witte Wieven 00:39:10 0
139 Hokkie's 00:39:09 1
140 Corbaatjes 00:38:59 12
141 Goutier 00:38:48 1
142 Nijzinkbende 00:38:47 6
143 MenM 00:38:39 0
144 ReSuNo 00:38:32 0
145 Hamse gezelligheid 00:38:22 2
146 hartogjes 00:38:15 2
147 Keyless 00:37:57 0
148 Chicks b4 dicks 00:37:39 1
149 Kroontjes 00:37:35 0
150 De ijsvogeltjes 715 00:37:21 0
151 Team de Vrueh 00:36:54 3
152 Framily 00:36:50 3
153 TeamTeunis 00:36:47 2
154 Veekies 00:36:40 4
155 Boevee 00:36:36 3
156 Doppers 00:36:35 4
157 ArLi 00:36:34 2
158 Fammetjes 00:36:30 6
159 JurreKnurre 00:36:29 2
160 De Dekkertjes 00:36:11 1
161 Captains Hoekstra 00:36:01 0
162 Newcourts 00:36:01 3
163 Louise & Mike 00:35:54 10
164 De waalie 00:35:52 3
165 Julia, David en Jonathan 00:35:47 3
166 De Hurms 00:35:38 1
167 De domme koeien 00:35:36 0
168 GBMans 00:35:32 1
169 Huis440 00:35:28 0
170 De Knulletjes 00:35:18 4
171 Koetsebakkers 00:35:13 0
172 Schapenkoppen 00:35:06 2
173 Bouwhuisjes+oma 00:35:01 0
174 Harte-Spijker 00:34:59 7
175 poel 00:34:50 3
176 De koele koes 00:34:42 4
177 De zwemmende eendjes 00:34:33 1
178 Nijpjes 00:34:27 12
179 De Mensinga's 00:34:25 3
180 DeBeren 00:34:09 4
181 SMTL 00:34:08 1
182 Mekkelel 00:33:58 5
183 Majiti's 00:33:58 4
184 Oordjes 00:33:58 5
185 NPGvanDiemers 00:33:56 2
186 110 00:33:53 4
187 De Krakers 00:33:53 2
188 Warlegganteam NL 00:33:52 1
189 Team Ellende 00:33:49 3
190 Breaking Out 00:33:48 1
191 Niet te kisten 00:33:46 1
192 Puttenaren 00:33:44 2
193 The Streamers 00:33:38 9
194 Ladies Kruut 00:33:30 1
195 Wat is er aan de kwant 00:33:24 8
196 Heemskerk 00:33:17 9
197 De kanisjes 00:33:16 9
198 de huismerels 00:33:11 7
199 FamRAAR 00:33:10 2
200 Chantal's Angels 00:32:58 1
201 B100 00:32:57 0
202 Niet erg creatief 00:32:52 3
203 Toverdoosje 00:32:45 0
204 Bremmertjes 00:32:35 4
205 De zusters van BertJaap 00:32:32 2
206 Sleutelcode 00:32:29 1
207 Zwannies 00:32:27 5
208 TEMPVERM 00:32:16 6
209 Tishol 00:32:12 2
210 KILS 00:32:11 2
211 BadHairDay 00:32:02 1
212 Dewestfriezen 00:31:54 7
213 De Groene Buizerd 00:31:52 0
214 Sinqo H 00:31:44 3
215 De bijtjes🐝 00:31:34 11
216 De kwade vliegjes 00:31:32 2
217 The Highlanders 00:31:27 8
218 de Baaijvlaaiers 00:31:23 1
219 Vondertjes 00:31:20 0
220 De suppers ut Fryslan 00:31:12 6
221 FC balhaar 00:31:07 2
222 De Keels 00:31:04 0
223 Marieke 00:31:02 2
224 Symaes en Vander Linden 00:30:57 8
225 Jong&co 00:30:56 1
226 love box 00:30:48 0
227 Vrijspeciaal 00:30:45 1
228 Team 63 00:30:41 4
229 Escape Piet 00:30:35 1
230 huisje 648 00:30:31 3
231 De hunebedden 00:30:23 0
232 De GilseSchans 00:30:20 7
233 Bellista 00:30:19 2
234 Mathoen 00:30:15 4
235 Jungle Jim😛😛😛 00:30:14 8
236 Stapelbed 00:30:09 2
237 Familie Bolte 00:30:09 0
238 Noordgeuzen 00:30:07 4
239 Gezellig 00:30:04 4
240 Uniekegroep 00:30:02 3
241 Christel60 00:30:02 4
242 De pronkies 00:30:02 10
243 Lala 00:29:58 6
244 Animatieteam kuierpad + Roderick en Niek 00:29:55 1
245 Team bollo 00:29:53 0
246 Degroot 00:29:48 1
247 Perdokkies 00:29:44 2
248 Non-Sukkies 00:29:43 5
249 De bende 00:29:37 8
250 Verploegies&Smilo 00:29:36 4
251 Wagemannetjes 00:29:34 2
252 Vechtvallei 00:29:32 1
253 31ALPHA 00:29:32 2
254 De Snuggles 00:29:29 5
255 De Rolletjes 00:29:27 0
256 Winnaars voor opa 00:29:27 1
257 Cato en Daan 00:29:23 1
258 InvestigationCheck 00:29:10 0
259 WeetIkVeel 00:29:07 2
260 Tonnen ketsers 00:29:06 11
261 Sticky Note 00:28:56 1
262 Binkies 00:28:35 8
263 De Konings 00:28:28 3
264 Moedig Voorwaarts 00:28:26 0
265 Lilydora 00:28:26 3
266 Chickies & Jordy 00:28:25 4
267 Jeneverbes 00:28:15 7
268 Coronettes 00:28:15 2
269 De Zilvervloot 00:28:15 1
270 Kwarktits 00:28:15 8
271 Heijdenmoppies 00:28:10 3
272 Huipies 00:28:08 5
273 Coco bitches 00:28:07 9
274 Dijkstra 00:28:05 4
275 Tante Sjaan 00:28:03 3
276 MeijHutje 00:28:00 6
277 BeMaiWil 00:27:53 1
278 Segersen 00:27:47 2
279 De Diepgravers 00:27:44 3
280 Sirolf21 00:27:36 1
281 zooitje ongeregeld 00:27:36 4
282 Hotties 00:27:34 3
283 Limi 00:27:31 2
284 Eindhovendegekste 00:27:29 3
285 De Hottub 00:27:28 7
286 Kuipertjes😎 00:27:21 0
287 Ysbekkies 00:27:13 3
288 Boerhof 00:27:06 0
289 Schipper family 00:26:58 2
290 Faasjes 00:26:56 5
291 Havenhunters 00:26:55 8
292 Ome Jan 00:26:54 2
293 C&C 00:26:50 3
294 Familie van Dopperen 00:26:25 0
295 Wildenbeest 00:26:25 8
296 Helder 00:26:21 3
297 De Nijboertjes 00:26:13 4
298 De patrijzen 00:26:11 11
299 Wijnbergen2 00:26:10 6
300 Fam.Intveen 00:26:08 1
301 Op de camping! 00:26:07 3
302 De Nicolaaitjes 00:25:59 7
303 Alphen45 00:25:57 0
304 Gasjes 00:25:57 4
305 Ma Flodder 00:25:53 1
306 De Vippies 00:25:53 1
307 Familie Knol 00:25:53 7
308 De Bellies 00:25:51 3
309 B&V 00:25:51 8
310 Schonewillegies 00:25:49 0
311 Coole gang 00:25:47 4
312 Poepie 00:25:44 5
313 De beuk er in! 00:25:44 1
314 cafe de paus 00:25:37 3
315 Nina's Crew 00:25:34 2
316 De heymsjes 00:25:32 1
317 Fam Rinsma 00:25:31 0
318 Aa 00:25:31 11
319 Balkum de gekste 00:25:28 1
320 De Smurfen 00:25:23 3
321 De Klagerjasclub 00:25:22 5
322 Onderzoekers 00:25:20 1
323 De abners 00:25:08 0
324 Hendrik IV 00:25:04 0
325 De arme stakkers 00:25:04 0
326 Oempa loempia's 00:25:02 1
327 De wolfjes 00:24:56 11
328 VanDeNoodEenDeugd 00:24:50 5
329 Braamkes 00:24:43 1
330 De Bossche bollen 00:24:43 3
331 Apenluiders 00:24:43 5
332 Du Lange 00:24:28 3
333 Maaskantjes 00:24:27 1
334 Gangsterhuisje510 00:24:20 2
335 Kamer 237 00:24:17 9
336 ReRe 00:24:11 2
337 Almelonia's 00:24:06 0
338 Familie kleinjan 00:24:04 0
339 Dongdong 00:24:02 3
340 de Japies 00:23:59 9
341 HACKERS 00:23:50 5
342 Berend botje 00:23:48 7
343 De Enkellikkers 00:23:46 0
344 Efawasa 00:23:43 7
345 Fang gang 00:23:41 5
346 Hallelujah 00:23:35 12
347 Baud and the Prangers 00:23:26 1
348 Njord 00:23:26 5
349 De Heidi’s 00:23:26 9
350 Jaylano’s crew 00:23:24 10
351 Fc 12 minutes 00:23:15 1
352 Guardians of the galaxy 00:23:07 4
353 De B.O-veld bende 00:23:06 1
354 Chicka’s uit Twente 00:22:58 2
355 The bomb 00:22:51 0
356 Baileys 00:22:49 5
357 Faijdherbe 00:22:45 6
358 Kolkman! 00:22:44 11
359 Ils20222 00:22:42 0
360 De rare langers 00:22:40 3
361 Joke's posse 00:22:38 1
362 Eisco's 00:22:36 2
363 Leidyk 00:22:36 2
364 Liever te dik in de kist 00:22:31 1
365 Linda & Martin 00:22:23 4
366 Bikkers 00:22:23 4
367 Phil and Claire Dunphy 00:22:20 2
368 Godinnen 00:22:15 3
369 VanSchootjes 00:22:14 11
370 Superspeurders 00:22:13 8
371 Vinkman 00:22:09 7
372 7 Koekoeks 00:22:09 0
373 Wei 00:22:08 3
374 Rood 00:22:07 0
375 groetjesvandeburen 00:22:05 9
376 Lenderink 00:22:02 1
377 Boschwachters 00:22:00 3
378 Westra 00:21:56 3
379 Langkawi 2 00:21:55 2
380 Taksi chauffeur 00:21:54 3
381 Compleet 00:21:43 1
382 Evelien en Daan 00:21:33 0
383 SjaMaPaCa 00:21:31 2
384 Bartje 00:21:24 3
385 Kesseltjes 00:21:23 1
386 Bart en Miriam 00:21:19 1
387 Spijkermannetjes 00:21:19 11
388 Waterpolitie 010 00:21:13 2
389 Thoon 00:21:13 8
390 Teamwork kuierpad 00:21:12 12
391 Kuipertjes 00:21:11 4
392 Jomomabastis 00:21:10 4
393 Casa Peters 00:21:08 2
394 De Wiergo’s 00:21:05 3
395 Bende van ellende 00:21:05 3
396 Hioany 00:21:02 5
397 De Platvissen 00:21:02 2
398 Hut(s) 321 00:20:59 6
399 Backstreet Boys 00:20:58 2
400 Fonsie 00:20:57 5
401 DjesModz 00:20:51 12
402 KatrienDuckies 00:20:45 3
403 Van Tienen 00:20:45 1
404 Bibimbap 00:20:41 1
405 Smelikjes 00:20:40 1
406 Niensel 00:20:40 1
407 Kwibus&co 00:20:39 1
408 DIJAMERK 00:20:37 6
409 Strating 00:20:36 2
410 Verheugen 00:20:33 4
411 Visscher 00:20:31 3
412 Bossche Bollen 00:20:31 8
413 High Elbow 00:20:30 1
414 Sijmons en co 00:20:30 5
415 Burgertjes 00:20:29 8
416 JJC en mama’s 00:20:26 9
417 Molenkater 00:20:24 4
418 De Slagers 00:20:20 2
419 WebStone 00:20:13 3
420 De 4 biggetjes 00:20:11 0
421 Hamoen 00:20:09 4
422 Tokkie’s 00:19:59 12
423 Smits 00:19:58 2
424 De jantjes 00:19:57 0
425 Mamaenzo 00:19:55 3
426 Happy campers 00:19:53 3
427 Booem 00:19:49 0
428 TIKTOKSQUAD 00:19:45 4
429 Fam Havering 00:19:44 1
430 AJ 00:19:39 3
431 202 00:19:37 2
432 Mulletjes 00:19:35 3
433 Buurtjes!! 00:19:33 0
434 Alle ballen op Royston 00:19:26 5
435 Wesseltjes 00:19:24 1
436 Piraten 00:19:18 5
437 KiSaTo Van MAC 00:19:09 1
438 De grote Kak 00:19:09 0
439 Voyageurs 00:19:03 1
440 Stresskippen 00:19:02 9
441 De Grolsche Kater 00:19:01 9
442 Rendiertjes 00:18:58 1
443 Dallies 00:18:56 6
444 Beekies 00:18:56 2
445 De SVH 00:18:54 0
446 Carr 00:18:33 2
447 De Hermsehuis band 00:18:32 0
448 Leila 00:18:30 4
449 FC Pannenkoek 00:18:29 4
450 Zus en co 00:18:28 3
451 Wijker 00:18:28 7
452 the mirrors 00:18:26 5
453 MIRACA 00:18:24 3
454 Van Hagen 00:18:23 6
455 Immie's Posse 00:18:22 4
456 Groene Haven 00:18:20 1
457 Toors 00:18:20 12
458 Knips 00:18:20 8
459 Schuluti's in de dop 00:18:12 0
460 De Boertjes 00:18:06 4
461 De puzzelaars 00:18:05 5
462 Beste van twesten 00:17:59 4
463 The Vermues 00:17:53 8
464 Beerze Rangers 00:17:50 2
465 DeVuggies5 00:17:47 9
466 Overpelt 00:17:43 3
467 Harold 00:17:37 9
468 peter en de koele kikkers 00:17:35 4
469 VandeRegen 00:17:33 4
470 Dejegerdingentjes 00:17:30 1
471 Lekkende balonnen 00:17:29 8
472 Poldermannen 00:17:28 0
473 Fanatiekelingen 00:17:21 3
474 D3Musketiers 00:17:17 1
475 Kinderman 00:17:17 2
476 Schut 00:17:14 0
477 DE RORO'S 00:17:13 3
478 Sikking 00:17:09 8
479 Koerselman 00:17:09 3
480 De 3 zoetjes 00:17:08 1
481 Bruss-apen 00:17:07 1
482 ZWELILOROFL 00:17:06 1
483 De Bovendeerdjes 00:16:59 2
484 JCL 00:16:56 11
485 DikkeTieten.nl 00:16:52 1
486 Reddingsboeien 00:16:49 4
487 Slopers 00:16:48 4
488 Warm 00:16:47 5
489 Peters 00:16:43 3
490 B&B 00:16:41 9
491 Raatelandjes 00:16:34 2
492 Kuuperties 00:16:33 4
493 Tjommie 00:16:31 7
494 Knibbelby 00:16:31 1
495 de Steentjes 00:16:27 2
496 De Havensjaakies 00:16:26 2
497 Youpi 5 00:16:22 7
498 Oversteegjes 00:16:18 6
499 Ruitertjes 00:16:13 0
500 Beilerbofkontjes 00:15:58 3
501 Oefoefoe’s 00:15:57 9
502 Bayennie 00:15:55 3
503 Reigâh 00:15:53 0
504 Tinyhousegang 00:15:49 10
505 Team Tuinbank 00:15:48 2
506 Agreesieee 00:15:48 5
507 Boze Belgen 00:15:47 2
508 #Besties 00:15:47 0
509 Maakerwatvan 00:15:42 6
510 SterrenWorst 00:15:39 12
511 Galenkamp 00:15:39 2
512 De Wellentjes 00:15:27 0
513 Wounie 00:15:26 3
514 de Graaf 00:15:25 11
515 Ava 00:15:21 5
516 Koele klippers 00:15:19 6
517 B-722 00:15:16 6
518 The big 6 00:15:15 2
519 Aikes 00:15:15 3
520 De Elite 00:15:14 1
521 De grootjes 00:15:13 8
522 De Teuters 00:15:12 2
523 Muisketiers 00:15:12 7
524 Poeremetator 00:15:11 3
525 Familie Vermeer 00:15:11 1
526 Aadjenoga 00:15:09 4
527 Charlie 00:15:08 2
528 van Leeuwen Prutsers 00:15:05 4
529 Sneekjes 00:15:05 4
530 klavertjevier 00:15:01 8
531 NOXOLOGEN 00:14:58 1
532 Bobingas 00:14:51 5
533 JanEnSophie 00:14:47 3
534 Team Floepie 00:14:41 3
535 De dokfjes 00:14:36 6
536 208ers 00:14:35 2
537 De Raatgevers weten raad 00:14:35 2
538 Frandré 00:14:32 2
539 Paco 00:14:32 2
540 Dombos 00:14:31 3
541 WarSpoor 00:14:29 3
542 Jongdek 00:14:26 3
543 Fultonstraat 00:14:26 3
544 Plukkestijn 00:14:22 1
545 Girl power 00:14:17 4
546 Sweet Smileys 00:14:15 1
547 DDMTJ 00:14:14 3
548 033 00:14:11 9
549 Burger 00:14:11 2
550 Team Roderick 00:14:10 1
551 Teambaby2022! 00:14:05 2
552 Klamer 00:14:04 0
553 Roosenboom 00:14:03 3
554 Haringkoppen 00:13:55 4
555 Otters 00:13:48 4
556 Lisan 00:13:44 5
557 Pansier 00:13:40 8
558 De Pansyhansy's 00:13:38 2
559 Bevers 00:13:38 10
560 Margaret60 00:13:37 2
561 Tutti 00:13:37 5
562 Hagen4 00:13:34 3
563 De Brulboeien 00:13:32 4
564 Blomaardtjes 00:13:32 1
565 M&L 00:13:30 2
566 Scharries 00:13:18 2
567 De Steentjes 00:13:17 7
568 De Ketraket 00:13:11 4
569 Bosuiltjes 00:13:11 3
570 007 00:13:09 1
571 De Kassies 00:13:08 6
572 De spreeuwen 00:13:01 4
573 De vier vosjes 00:12:57 1
574 #TeamZuurkool 00:12:54 6
575 Heijden 00:12:54 2
576 Lekkere wijven 00:12:53 6
577 Jacku 00:12:53 3
578 Houtenhuijsjes 00:12:47 2
579 De fam 00:12:47 1
580 De Snelle Bananen 00:12:41 5
581 Spekkies 00:12:39 1
582 Lammetjes 00:12:36 4
583 Sissies 00:12:36 6
584 Skoatjes 00:12:36 2
585 Bridges & Co 00:12:34 3
586 VersluisRotterdam 00:12:30 1
587 Louwe Family 00:12:30 0
588 Aapie&draakie 00:12:29 1
589 Animaniacs 00:12:29 9
590 De winnaars 00:12:28 6
591 Janjansendekinderen 00:12:26 3
592 Ellerbroekies 00:12:23 1
593 Halimaanrilote 00:12:22 2
594 Team Pony 00:12:21 3
595 Wognumse faalhazen 00:12:16 6
596 Postomaatjes 00:12:11 3
597 The perfect mix 00:12:11 3
598 blokdinnies 00:12:06 7
599 Kwakkenvos 00:12:04 3
600 List & bedrog 00:12:02 2
601 Betsy 00:12:00 9
602 van Bodegraven 00:12:00 12
603 Mulderinho's 00:11:57 4
604 escapies 00:11:57 5
605 Ezelstad 00:11:55 3
606 Pull My Finger 00:11:54 2
607 De Houwies 00:11:46 3
608 De Vogelaartjes 00:11:45 7
609 Flodder en De Cock 00:11:40 3
610 Fam Smit 00:11:37 2
611 MOLECATEN 2022 00:11:37 2
612 De F16s 00:11:36 1
613 De verbeekjes 00:11:35 10
614 Bende van ellende 2022 00:11:32 7
615 the ten berge clan 00:11:32 4
616 Kruisjes 00:11:27 8
617 Gento’s 00:11:23 2
618 Druktemakers 00:11:22 2
619 Wietse en Els 00:11:22 4
620 Witte Wijfjes 00:11:20 1
621 LuAn 00:11:18 4
622 De Kamelenrijders 00:11:16 2
623 DonenMaris 00:11:11 2
624 Groep 5 00:11:08 12
625 Berend Botje 666 00:11:06 2
626 Fam de Bruijn 00:11:03 2
627 PLAETENAEREN 00:11:03 6
628 Bouwmeester 00:11:01 3
629 De Hangbuikzwijntjes 00:10:53 0
630 De Plekkenpolletjes 00:10:53 7
631 CasadelGancho 00:10:53 3
632 the Rabbits 00:10:50 5
633 Lm 00:10:48 4
634 KistZonderNaam 00:10:48 1
635 DeJagerz 00:10:47 5
636 Nieuwehuisjes 00:10:43 6
637 JETI 00:10:38 6
638 Sjtuffelke 00:10:38 2
639 Kruitjes 00:10:35 1
640 Aardappelen in blik 00:10:35 4
641 Tollies 00:10:35 5
642 Caittaathalathal 00:10:31 0
643 Fan Flodder 00:10:28 1
644 Piratenfamilie 00:10:27 2
645 Schipsep 00:10:26 0
646 Fantasie uit Overdinkel 00:10:25 0
647 Vrouwenpower1022 00:10:24 8
648 De Tika's 00:10:23 4
649 MiranChris 00:10:21 2
650 Nerds 00:10:20 8
651 De Boerkes 00:10:19 2
652 Houtense Hunters 00:10:16 2
653 Oons moe 00:10:15 2
654 De Hetty's 00:10:15 2
655 De Dubieuze Dounairs 00:10:09 2
656 The gold diggers 00:10:08 4
657 hippoo en kikker 00:10:02 4
658 F.L.A.M. 00:10:01 2
659 De Machies 00:09:54 7
660 Molecaten 2.0 00:09:51 6
661 C&A 00:09:49 2
662 team Demas 00:09:41 6
663 Jongkies 00:09:38 5
664 AltUndNeu 00:09:33 12
665 Rema 00:09:32 2
666 Harmsie 00:09:30 5
667 Velema 00:09:27 0
668 De kampioenen 00:09:26 1
669 Stollies 00:09:22 1
670 Outjes 00:09:18 2
671 TukTuks 00:09:13 2
672 De Snellies 00:09:12 7
673 LUKENS 00:09:11 7
674 Fam. Lambermont 00:09:08 2
675 Hoefijzer 00:08:59 3
676 de Kalf knallers 00:08:57 5
677 Betuws geluk 00:08:55 4
678 Hendriksen 00:08:53 1
679 Maters hotline 00:08:51 1
680 Meulenrabbitmeer 00:08:50 4
681 Inspector Gadget 2.0 21 00:08:50 3
682 Wij 00:08:45 5
683 Foute gasten 00:08:43 2
684 Flanellen Willetje 00:08:38 5
685 Bollo Fanclub 00:08:37 4
686 Lewerissa 00:08:31 8
687 Dipshitties 00:08:30 5
688 Vredenbregt 00:08:30 4
689 Slowliving 00:08:28 2
690 MWSK 00:08:28 8
691 speurneusjanssen 00:08:22 4
692 Sarino dames 00:08:20 0
693 Pip&Puk 00:08:17 8
694 Jens is jarig 00:08:14 8
695 Team kist 00:08:14 1
696 Team Merel 00:08:10 3
697 Degelijke ouders 00:08:10 3
698 Sasjormad 00:08:07 11
699 De struis 00:08:03 9
700 Kaaijts 00:08:03 3
701 DeKrakers 00:08:02 4
702 Fundering 00:07:59 6
703 Haven 00:07:58 0
704 Happy campers 166 00:07:52 11
705 Peter is Beter 00:07:43 0
706 Welling 00:07:41 1
707 Hoi 00:07:40 2
708 Westerhaar1 00:07:37 0
709 Dory 00:07:37 7
710 De escapers 00:07:36 3
711 Agent109 00:07:35 10
712 De van Opstalletjes 00:07:33 6
713 kapiteinLieke 00:07:33 4
714 Stelma 00:07:31 11
715 Arkeeijks 00:07:26 2
716 Hoofdkantoor vlinder 2 00:07:24 10
717 Louwtjes 00:07:22 2
718 Alpaca 00:07:20 7
719 Groep Awkward 00:07:18 0
720 Koverwijk 00:07:16 11
721 Kaasknabbeltjes 00:07:12 5
722 Douchegel 00:07:10 12
723 Koenen-gang 00:07:09 5
724 CSI bentelo 00:07:06 2
725 Lana’s chicks 00:07:03 3
726 De Amsterdammertjes 00:07:02 7
727 Oetje toetjes 00:07:01 2
728 De bende van Oss 00:07:01 8
729 LiefAmmy 00:07:01 12
730 De bomhofjes/Vijgjes 00:07:00 6
731 Kromkamp 00:06:55 0
732 BUL 00:06:51 9
733 Wieggers433 00:06:47 8
734 Annemijn slaapt 00:06:41 6
735 Pirates of carrabean 00:06:41 9
736 Joost mag het weten 00:06:38 7
737 twee keer rechts een keer links 00:06:36 0
738 MaNaTiLiLa 00:06:36 4
739 Stoere fase 00:06:35 4
740 De politie KID 00:06:34 5
741 bolletjes 00:06:29 5
742 Beumers 00:06:27 5
743 Kootjes 00:06:23 5
744 Cor's angels 00:06:21 8
745 Familie Kremers 00:06:21 2
746 The Escape Artists 00:06:17 2
747 Team Princenhage 00:06:15 3
748 BOLLO 00:06:13 3
749 Masterminds 00:06:13 4
750 De Waardtjes met Appel 00:06:11 3
751 Barney's 00:06:08 7
752 Schaapjes 00:06:07 3
753 Zwahili 00:06:06 0
754 YOUPIE 00:06:06 6
755 Boumaatjes 00:06:05 12
756 BiZunder 00:06:00 5
757 Simmerdeis 00:05:56 4
758 Ijsvogeltjes 00:05:54 12
759 Van Bollies 00:05:51 4
760 Glitterdrollen 00:05:50 4
761 De Starke 5 00:05:47 5
762 Nylo’s bbgs❤️🥺 00:05:45 8
763 Blokkies 00:05:45 12
764 wintersportsmall 00:05:42 5
765 ‘n Krul 00:05:29 0
766 de Boefjes 00:05:28 1
767 Vugts 00:05:25 3
768 Feestje72 00:05:24 5
769 Ruud en Yvonne 023 00:05:23 4
770 Rcn 00:05:18 1
771 Tolsma gebroed & co 00:05:17 2
772 Vossjes2.0 00:05:15 10
773 Graaffjes 00:05:13 4
774 OK-Bitches 00:05:09 6
775 De smikkelbeertjes 00:05:02 6
776 de Alblasjes Detectives 00:04:54 12
777 Dubbelsafe 00:04:54 4
778 Wasbo’s 00:04:51 5
779 HugodeGroot 00:04:48 1
780 Leeuwens 00:04:44 2
781 Het mysterie van de haven 00:04:43 1
782 Wurffies 00:04:42 4
783 Steenberg 00:04:39 11
784 JIPST 00:04:38 3
785 Suuman 00:04:32 5
786 HR LHPO 00:04:31 0
787 Drenthies 00:04:28 4
788 Plantjes 00:04:28 7
789 Buffels 00:04:27 9
790 rudolf de king 00:04:21 4
791 Scrocchi grande 00:04:21 7
792 Dekcheng 00:04:19 3
793 De Voorsluijsjes 00:04:19 9
794 sewtahani 00:04:18 10
795 deGraaf 00:04:16 12
796 Wildebeast & Co 00:04:12 2
797 Kokshoorn 00:04:11 4
798 The Secret Hunters 00:04:11 4
799 Hagbloem35 00:04:11 3
800 Zoniet, dan toch 00:04:10 8
801 Berk 00:04:05 5
802 Detectives Die en Buh 00:04:02 1
803 De Valkies 00:03:56 8
804 De Schippers 00:03:55 5
805 Klabbertjes 00:03:54 4
806 Moltman 00:03:52 1
807 Kreekies 00:03:48 8
808 Pouweltjes 00:03:43 3
809 fam.Roeling 00:03:34 2
810 Van Triggies 00:03:33 8
811 bijlkooten 00:03:32 11
812 Klaar weer... 00:03:32 0
813 Ain’t no mountain high enough 00:03:30 1
814 The Clue Crew 00:03:29 4
815 LR 00:03:28 11
816 De Eekhoorntjes 00:03:23 5
817 Kampeerbrothers 00:03:22 6
818 Nelson Mandela 00:03:21 1
819 Oeno en de rest 00:03:19 1
820 Anhajofe 00:03:16 5
821 Kapitein Onderbroek 00:03:09 4
822 Amendt 00:03:07 12
823 Snoensels 00:03:05 0
824 BultEef 00:03:02 4
825 Papagaai61 00:02:59 4
826 Berg 00:02:58 12
827 Nachtuiltjes 00:02:58 4
828 Nijen🏠 00:02:58 4
829 Team Putten 00:02:58 5
830 Escape Derckies 00:02:52 3
831 De Tebbertjes 00:02:47 3
832 Hilau 00:02:46 2
833 TJMS 00:02:45 8
834 203 00:02:42 4
835 Geen idee 00:02:40 3
836 Kleine Ijsbeer 00:02:31 5
837 Misty en de Detectives 00:02:26 7
838 De Dikkels 00:02:23 3
839 403 00:02:23 7
840 De Reddertjes 00:02:23 8
841 Ouwerkerkjes 00:02:23 4
842 De broemende Gerrie's 00:02:20 7
843 Penning 00:02:19 6
844 De slimme vogels 00:02:18 10
845 Buithorst 00:02:09 11
846 Jurgen 00:02:08 12
847 Klein Wassink 00:02:02 3
848 Thomas2.0 00:02:02 6
849 De Boompiepers 00:02:02 3
850 Kluskes 00:02:01 3
851 de beste lammies 00:01:58 0
852 Wielewaal 00:01:57 7
853 LEFF 00:01:51 5
854 Moeders en co 00:01:49 4
855 Van Dijk 00:01:42 3
856 Leeuwtjes 00:01:38 5
857 Possie 00:01:31 4
858 ZIGGYS GANG 00:01:30 12
859 T L Koef 00:01:28 4
860 Bakvissen 00:01:27 11
861 5 Musketiers 00:01:25 7
862 The final braincell 00:01:22 8
863 Joep & Co 00:01:22 5
864 Popkens 00:01:20 4
865 De Nollies 00:01:19 4
866 De Grimmies 00:01:18 3
867 Kooijtjes 00:01:17 2
868 Disco fever 00:01:07 3
869 De Familie Leeuwen 00:01:06 10
870 De Fidders 00:01:05 4
871 2/3 ter Schure + koude kant 00:01:05 8
872 SmiemiesDenHaag 00:01:02 6
873 Soesclub 00:01:01 10
874 Boersma&co 00:01:01 7
875 Hemelvaart2021 00:01:01 5
876 Jehannes de beatle 00:01:01 6
877 plasjes 00:00:55 5
878 quandale_dingle 00:00:53 9
879 Wie in de haven? 00:00:49 6
880 Gommers 00:00:40 4
881 Hanse Heultie 00:00:39 6
882 Sjan 00:00:38 4
883 VBK 00:00:37 6
884 MoobLockPower 00:00:34 4
885 BlubBlub 00:00:30 6
886 HuisjesCol 00:00:29 8
887 Piratenhiernaast 00:00:28 12
888 Drie musketiers 00:00:26 5
889 De Wielies! 00:00:26 4
890 Familie Verkade 00:00:18 6
891 sas en mark 00:00:13 1
892 De salamanders 00:00:11 3
893 ekkelties 00:00:08 7
894 Taeko’s 00:00:07 4
895 Grolsch United 00:00:07 5
896 Flodders 00:00:04 8
897 Smeerkerkies 00:00:03 2
898 De gekste 00:00:00 5
899 IJff-power 00:00:00 8
900 Mulhag 00:00:00 10
901 Police Stars 00:00:00 5
902 De Hammies 00:00:00 7
903 Ken je dat niet horen dan? 00:00:00 2
904 De uithalers 00:00:00 2
905 Hoossies 00:00:00 7
906 Duikbrillenclub 00:00:00 8
907 Ruizendaal 00:00:00 5
908 De Satisfyers 00:00:00 7
909 Tabarelli4 00:00:00 2
910 208 00:00:00 5
911 Luclynnisa 00:00:00 12
912 Sevens 00:00:00 12
913 vdboogaart_heeze 00:00:00 2
914 Anatoliy 00:00:00 4
915 Blommetjes 00:00:00 5
916 Koopman 00:00:00 8
917 Nijmodijk 00:00:00 9
918 Tijmboektoe 00:00:00 0
919 The Ozzies 00:00:00 8
920 Kroeze 00:00:00 2
921 Monnickendammers 00:00:00 8
922 Jagt 00:00:00 4
923 Haaybaaitjes 00:00:00 10
924 Fisy 00:00:00 9
925 Yeah 00:00:00 11
926 Seob 00:00:00 1
927 Stefan en Jogé 00:00:00 10
928 De Ademaatjes 00:00:00 11
929 Nummer 73 00:00:00 4
930 Groos 00:00:00 10
931 MM2 00:00:00 8
932 Wouters 00:00:00 2
933 Team VM 00:00:00 12
934 de bende van ellende 00:00:00 12
935 Detective Nicholls 00:00:00 9
936 Dillen 00:00:00 10
937 De winnaartjes 00:00:00 12
938 De drietjes 00:00:00 10
939 Hoekstraat 00:00:00 12
940 De vanDaaltjes 00:00:00 5
941 De Slimmerds 00:00:00 4
942 Jklm 00:00:00 8
943 Tampies 00:00:00 11
944 Le grand pantalon 00:00:00 5
945 Verin 00:00:00 3
946 Nori Pattatori 00:00:00 3
947 Wijmengaatjes 00:00:00 7
948 Zonnebloemen 00:00:00 12
949 De batra’s 00:00:00 11
950 Jagers 00:00:00 10
951 A&B 00:00:00 12
952 Touhafi's 00:00:00 12
953 Vijftien 00:00:00 9
954 Panda’s 00:00:00 7
955 Gerikini 00:00:00 6
956 Luna 00:00:00 2
957 Meesters 00:00:00 5
958 Femke 00:00:00 0
959 De Kruiken 00:00:00 12
960 De limburgers 00:00:00 8
961 De voetbalclub 00:00:00 9
962 Robert 00:00:00 9
963 Lekker met de meiden 00:00:00 8
964 Oma’s kroost 00:00:00 12
965 Beppen12 00:00:00 10
966 Haloa 00:00:00 6
967 Mheentjes 00:00:00 11
968 De pipo's 00:00:00 7
969 VdHeulVossen 00:00:00 2
970 De Valburgjes 00:00:00 4
971 Team Harrie en Hex 00:00:00 2
972 Kabouter 00:00:00 2
973 De gekkies 00:00:00 5
974 FM2012 00:00:00 3
975 Baaierlanders 00:00:00 6
976 Indy 00:00:00 10
977 Kuifmeesters 00:00:00 9
978 Champion 00:00:00 0
979 70’ers 00:00:00 8
980 Kampherbeek 00:00:00 10
981 Team Zuidinga 00:00:00 4
982 Reuzen 00:00:00 4
983 Ellepel 00:00:00 7
984 Freerk 00:00:00 6
985 The Biggest 00:00:00 5
986 Smella 00:00:00 7
987 Familie Bosch 00:00:00 6
988 Brinkies en co 00:00:00 3
989 Fam 128 00:00:00 5
990 Familie Koper 00:00:00 8
991 Barryssss 00:00:00 0
992 Familie snack 00:00:00 11
993 Swissdoetz 00:00:00 12
994 Frankies1408 00:00:00 4
995 Van Gessel 00:00:00 6
996 Beekse poppeltjes 00:00:00 6
997 Familie de gekste 00:00:00 11
998 Leo 00:00:00 9
999 Fc tia 00:00:00 0
1000 Pornstars 00:00:00 0
1001 Sara Test STC 00:00:00 0
1002 Lars&demi 00:00:00 10
1003 Mrv budde 00:00:00 0
1004 Groep 1 00:00:00 0
1005 Trust 00:00:00 9
1006 Team Taco 00:00:00 3
1007 Konyo 00:00:00 9
1008 Uithalers 00:00:00 10
1009 OetDrenthe 00:00:00 4
1010 Team Vieze 00:00:00 7
1011 Flamingo 00:00:00 4
1012 Geenidee 00:00:00 9
1013 Uithalerbrakkaboys 00:00:00 8
1014 Framilie 00:00:00 8
1015 Pippos 00:00:00 9
1016 eemnes 00:00:00 8
1017 Elpies 00:00:00 11
1018 Aardbeien 00:00:00 4
1019 00:00:00 10
1020 Captain SpackJarrow 00:00:00 6
1021 Veenvell 00:00:00 11
1022 veenvell 00:00:00 3
1023 VanAken 00:00:00 7
1024 Kechies 00:00:00 0
1025 Snepvangers 00:00:00 9
1026 Schneidertjes 00:00:00 0
1027 LiFloSaMen 00:00:00 12
1028 MoBaInRu 00:00:00 3
1029 De Bolle Bollo’s 00:00:00 5
1030 Schreursjes 00:00:00 12
1031 Mystery M’s 00:00:00 8
1032 Gezelligheid op Coldenhove 00:00:00 9
1033 Meijer 00:00:00 0
1034 Jaapenlusanne 00:00:00 10
1035 De Coole Kippen 00:00:00 4
1036 Plantebakjes 00:00:00 0
1037 Spijker6 00:00:00 8
1038 De-Bingo-Winners 00:00:00 7
1039 Team Sneek 00:00:00 6
1040 CasperDekkers! 00:00:00 7
1041 Werffie's 00:00:00 4
1042 De Super Pika’s 00:00:00 9
1043 De stolkse boertjes 00:00:00 4
1044 De 713-tjee 00:00:00 0
1045 De Tuintjes 00:00:00 5
1046 Team Lucas 00:00:00 3
1047 hazelaar 00:00:00 8
1048 Bakker 00:00:00 8
1049 Team Gijs 00:00:00 10
1050 Krukken 00:00:00 9
1051 De Minnetjes 00:00:00 3
1052 De eendjes 00:00:00 5
1053 Brabo's 00:00:00 10
1054 Koele Kikkers 00:00:00 11
1055 De Ra BN ers 00:00:00 3
1056 Bastiaansen 00:00:00 6
1057 De Boompjes 00:00:00 0
1058 Huiskampies 00:00:00 2
1059 Loedermoeders 00:00:00 6
1060 FriteRia 00:00:00 0
1061 De emmy's 00:00:00 8
1062 Bosaventuriers 00:00:00 12
1063 GOONIENEE 00:00:00 4
1064 Hazen & Wezels 00:00:00 3
1065 Zinger-Reiber 00:00:00 9
1066 Biggies 00:00:00 2
1067 Partyanimals 00:00:00 0
1068 Kanters 00:00:00 1
1069 Goudou 00:00:00 4
1070 42 00:00:00 10
1071 Team-o 00:00:00 1
1072 Familie ratjetoe 00:00:00 7
1073 Dirven 00:00:00 5
1074 Familie Betting 00:00:00 4
1075 Josefien10 00:00:00 1
1076 Malaga 00:00:00 2
1077 Unlock 00:00:00 2
1078 Team sombrero bos hé 00:00:00 5
1079 Jo 00:00:00 3
1080 8 BALL 00:00:00 6
1081 Roel&Irma 00:00:00 3
1082 De Ruchti's 00:00:00 6
1083 SuperSanne 00:00:00 7
1084 LPower 00:00:00 11
1085 FLOVAR 00:00:00 5
1086 Atz32 00:00:00 8
1087 Kleef 00:00:00 7
1088 Wolfslag 00:00:00 12
1089 Bar & Jenn 00:00:00 8
1090 Roelofsen&co 00:00:00 0
1091 de Kwartels 00:00:00 1
1092 The Black purrrrr 00:00:00 4
1093 Team Sammie 00:00:00 3
1094 Smitoverweghekmanpas 00:00:00 1
1095 BB33 00:00:00 0
1096 De lemelaars 00:00:00 6
1097 Huisjes 00:00:00 7
1098 The beagles 00:00:00 1
1099 Wij laten ons niet kisten 00:00:00 1
1100 Bussink Power 00:00:00 4
1101 Odd squad 00:00:00 9
1102 Goof&Co 00:00:00 3
1103 Eijkjes 00:00:00 9
1104 De krakers 00:00:00 10
1105 Hollandscheveld 00:00:00 5
1106 Het blauwe leger ESD 00:00:00 4
1107 Hangover 4 00:00:00 3
1108 Pro's 00:00:00 3
1109 Team Smeets 00:00:00 7
1110 Fromthemountain 00:00:00 2
1111 Minkeisjarig 00:00:00 1
1112 De beugels 00:00:00 5
1113 De 9 musketiers 00:00:00 6
1114 Portugaaltjes 00:00:00 5
1115 Bartels 00:00:00 2
1116 Bartels1 00:00:00 0
1117 Vennik 00:00:00 2
1118 Loenatiks 00:00:00 4
1119 Brak 00:00:00 4
1120 Badertjes 00:00:00 9
1121 KelDar 00:00:00 4
1122 Lovebirds 00:00:00 11
1123 Boskampies 00:00:00 11
1124 Ninjago 00:00:00 11
1125 Pino’s 00:00:00 7
1126 Balzak 00:00:00 4
1127 Landal 00:00:00 12
1128 Strampel 00:00:00 7
1129 stevens 00:00:00 6
1130 De Rakkers 00:00:00 6
1131 Pasenclub2021 00:00:00 9
1132 Planet rose 00:00:00 7
1133 Duutshoffies 00:00:00 3
1134 Swennies 00:00:00 8
1135 K3 00:00:00 8
1136 De boompjes 00:00:00 12
1137 Wellmansjes 00:00:00 12
1138 Pijffers 00:00:00 5
1139 Stumpers 00:00:00 5
1140 Netzogek 00:00:00 8
1141 Wietsmokertje 00:00:00 8
1142 FamilyM 00:00:00 5
1143 Sander en Nienke 00:00:00 10
1144 Patatje 00:00:00 2
1145 Camping 00:00:00 6
1146 Iepies 00:00:00 8
1147 De kleine leeuwtjes 00:00:00 8
1148 RabbitHillJM 00:00:00 3
1149 Varkenssanne 00:00:00 1
1150 De kolkies 00:00:00 8
1151 Bitches 00:00:00 3
1152 Geheime agenten 00:00:00 4
1153 Huisje59 00:00:00 2
1154 De Smitties 00:00:00 2
1155 Texeltje 00:00:00 7
1156 NiLiMiNiLiMi 00:00:00 10
1157 MasterTeam 00:00:00 3
1158 Rotterdammers 00:00:00 8
1159 Blackies 00:00:00 6
1160 James Blond 00:00:00 12
1161 Weertjes 00:00:00 5
1162 DePosthoeve 00:00:00 4
1163 geen leuke familie 00:00:00 4
1164 Laajan 00:00:00 8
1165 Diagnaze 00:00:00 5
1166 Carpenters 00:00:00 8
1167 The Boyz 00:00:00 4
1168 Family105 00:00:00 5
1169 Jaxi 00:00:00 8
1170 The Boys 00:00:00 8
1171 Eilandjes 00:00:00 6
1172 Poortvliet 00:00:00 8
1173 BuEen 00:00:00 3
1174 De muisjes venema 00:00:00 1
1175 De Kramers & Robin 00:00:00 6
1176 Lamers225 00:00:00 6
1177 knuppels 00:00:00 3
1178 De 713-tjes 00:00:00 12
1179 Mastopjes 00:00:00 10
1180 Klokkie 00:00:00 11
1181 FamBijloo 00:00:00 4
1182 Wichertjes 00:00:00 0
1183 The V-Team 00:00:00 3
1184 Mesmetsucces! 00:00:00 6
1185 Malle Henkie 00:00:00 4
1186 De Brouwertjes 00:00:00 5
1187 The Rebbels 00:00:00 3
1188 HAJ hkz zld 00:00:00 8
1189 De Rielse beulen 00:00:00 9
1190 Kasseltjes 00:00:00 11
1191 Fam Poortman 00:00:00 2
1192 De speurneuzen 00:00:00 5
1193 Berend botjes 00:00:00 8
1194 Veneklaas 00:00:00 12
1195 Christmasteam 00:00:00 6
1196 valkjes 00:00:00 10
1197 De cocaïne hunters 00:00:00 6
1198 Lammerts van Bueren 00:00:00 5
1199 Eekhoorn715 00:00:00 5
1200 De Joopies 00:00:00 5
1201 Kuikentjes 00:00:00 5
1202 De bitterballen 00:00:00 3
1203 Dijkxhoorn 00:00:00 6
1204 Liertjes 00:00:00 11
1205 Zaalberg 00:00:00 5
1206 Overbeekjes 00:00:00 4
1207 Masterluuk 00:00:00 9
1208 Kersten 00:00:00 12
1209 De Doorentjes 00:00:00 3
1210 Nieuwkomers 00:00:00 11
1211 De zes van S 00:00:00 12
1212 Powerpannenkoeks 00:00:00 11
1213 KNALA 00:00:00 5
1214 Dupoint 00:00:00 9
1215 Team steenuil 00:00:00 5
1216 PitoKnerpie 00:00:00 9
1217 TijnIse 00:00:00 7
1218 Tiellie-Roetie 00:00:00 7
1219 Jacobs Struik 00:00:00 12
1220 Speklepjes 00:00:00 12
1221 De sjippies 00:00:00 4
1222 SVEH 00:00:00 3
1223 Flikken Zeeland 00:00:00 10
1224 Welages 00:00:00 6
1225 Jorrie 00:00:00 5
1226 Schoutjes 00:00:00 3
1227 Vjennekloetn 00:00:00 5
1228 Cf 00:00:00 2
1229 FamilieGerdes 00:00:00 6
1230 Commanders 00:00:00 3
1231 Escape de Wit 00:00:00 6
1232 Super Zwaap 00:00:00 11
1233 De veluwe 00:00:00 6
1234 Make that the cat wise 00:00:00 6
1235 Fam van de Pavert 00:00:00 8
1236 Veenstra klungels 00:00:00 7
1237 Het boeit mij niks 00:00:00 6
1238 Triest 00:00:00 10
1239 De bergjes 00:00:00 11
1240 Wijnberg 00:00:00 12
1241 De pekelders 00:00:00 10
1242 De Kolhekjes 00:00:00 7
1243 Nu wel 00:00:00 2
1244 Prutsers 00:00:00 0
1245 Team Nijenkampies 00:00:00 11
1246 FF 00:00:00 0
1247 JJ 00:00:00 8
1248 De Pioniers 00:00:00 7
1249 Schoorl&co 00:00:00 7
1250 Svenpapa 00:00:00 9
1251 Hart&Koek 00:00:00 9
1252 Kampeerders 00:00:00 9
1253 NOAD 00:00:00 10
1254 Tuinstra 00:00:00 11
1255 LTK 00:00:00 4
1256 FC Max 00:00:00 6
1257 BeersMill 00:00:00 0
1258 Walletjes 00:00:00 8
1259 De Ruijtenbergies 00:00:00 4
1260 310 00:00:00 8
1261 Reddingstas 00:00:00 3
1262 MirMar 00:00:00 6
1263 Boelies 00:00:00 6
1264 Klunder 00:00:00 10
1265 t'veen 00:00:00 5
1266 GoldenGirls_* 00:00:00 2
1267 De doedels 00:00:00 5
1268 De Witjes 00:00:00 8
1269 Broer van dijk 00:00:00 4
1270 Verbrugge 00:00:00 9
1271 Ties 00:00:00 9
1272 Schummi's 00:00:00 6
1273 Laserkit 00:00:00 6
1274 Casa Kaasje 00:00:00 4
1275 Ruessink 00:00:00 8
1276 Patjanstantho 00:00:00 11
1277 Weuke pankenken 00:00:00 9
1278 De Counter Pounters 00:00:00 7
1279 Maissan 00:00:00 6
1280 Happy familie 00:00:00 2
1281 PELLETJES 00:00:00 4
1282 TILBO’S 00:00:00 3
1283 De Bende van Ellende 00:00:00 8
1284 De Haantjes 00:00:00 6
1285 WiWiWu 00:00:00 4
1286 070ers 00:00:00 7
1287 Houdini 00:00:00 6
1288 Daphne & Yoran 00:00:00 1
1289 Duo Lijo 00:00:00 10
1290 Janssen 00:00:00 11
1291 Dreistein 00:00:00 4
1292 De Bobi’s 2.0 00:00:00 12
1293 De Roze olifant 00:00:00 9
1294 Lizzy 00:00:00 5
1295 Loopy Lions 00:00:00 0
1296 Dupger 00:00:00 2
1297 HulseggeBulties 00:00:00 4
1298 Groep 2 00:00:00 0
1299 Janneke en matthijs 00:00:00 5
1300 Peller 00:00:00 5
1301 Scholten 00:00:00 2
1302 fam Kleinjan 00:00:00 4
1303 Polmo 00:00:00 4
1304 De Nozems 00:00:00 11
1305 DeGraaf 00:00:00 4
1306 De baaltjes 00:00:00 10
1307 Stippie en Strepie 00:00:00 6
1308 Wokko&Plonty 00:00:00 8
1309 Kiren 00:00:00 6
1310 Fam.Schellekens 00:00:00 8
1311 Bollo327 00:00:00 12
1312 AapSchaap 00:00:00 9
1313 Fam Deelen 00:00:00 8
1314 de lollypops 00:00:00 5
1315 De chicas 00:00:00 11
1316 Splintertjes 00:00:00 1
1317 Limoenje 00:00:00 9
1318 Molsnollen 00:00:00 5
1319 Van de Gruppies 00:00:00 8
1320 The Big Brains 00:00:00 7
1321 Kloot 00:00:00 8
1322 Carrem 00:00:00 8
1323 Chickenladies 00:00:00 11
1324 de Kleijntjes 00:00:00 5
1325 Nieuwenkampjes 00:00:00 9
1326 Kruijsjes 00:00:00 6
1327 #teamLangedijk 00:00:00 3
1328 lol masters 00:00:00 12
1329 De Drostjes 00:00:00 2
1330 Dijkjes 00:00:00 6
1331 De Oplossers 00:00:00 1
1332 Hero’s 00:00:00 0
1333 Knuf&Co 00:00:00 8
1334 The 8 team 00:00:00 12
1335 EEKHOORN 00:00:00 11
1336 DeMatrozen 00:00:00 2
1337 De Panapadders 00:00:00 3
1338 Brandwel 00:00:00 9
1339 Sennes trots 00:00:00 3
1340 Scheper2.0 00:00:00 8
1341 De Bosmannetjes 00:00:00 5
1342 Kimme Santie 00:00:00 5
1343 Snoepjes 00:00:00 1
1344 The Browns 00:00:00 2
1345 Admiraaltjes 00:00:00 12
1346 Fam. Looij 00:00:00 10
1347 Schootjes 00:00:00 7
1348 Fissa 00:00:00 10
1349 Smeding 00:00:00 11
1350 Offringgons 00:00:00 2
1351 De knallende vijf 00:00:00 11
1352 Foxie Team 00:00:00 6
1353 Hamerslag 00:00:00 9
1354 Martena 00:00:00 6
1355 Fam. Villerius 00:00:00 7
1356 Brinkies 00:00:00 6
1357 De eekhoorns 00:00:00 7
1358 DeOnderkinnen 00:00:00 2
1359 Spruotjes 00:00:00 0
1360 De Jongetjes 00:00:00 8
1361 DDN Hattem 00:00:00 5
1362 De scheetjes 00:00:00 4
1363 50 plus Petra 3-3 00:00:00 12
1364 Lars & Lars 00:00:00 5
1365 Duuk2021 00:00:00 5
1366 De 4 musketiers 00:00:00 10
1367 De Lama's 00:00:00 5
1368 Veerhunters 00:00:00 7
1369 BIKE 00:00:00 7
1370 De terpjes 00:00:00 9
1371 De politiegroep 00:00:00 4
1372 Feniks2 00:00:00 10
1373 Feniks 00:00:00 0
1374 Sander & Kimberley 00:00:00 10
1375 Huisje25 00:00:00 6
1376 Dijksma 00:00:00 12
1377 Bouvies7 00:00:00 7
1378 De Valkjes 00:00:00 1
1379 Vosjes 00:00:00 2
1380 Tenbrinkjes 00:00:00 10
1381 De leeuwtjes 00:00:00 7
1382 Lagemaat35 00:00:00 12
1383 mumimisi 00:00:00 10
1384 Liever te dik in de .... 00:00:00 2
1385 Layla's butlers 00:00:00 7
1386 de Bruijn 00:00:00 8
1387 Floortjes 00:00:00 5
1388 De eekhoorn 00:00:00 10
1389 Dokters Beard 00:00:00 3
1390 Bavianen Wijlens 00:00:00 12
1391 Yvonne&Nienke 00:00:00 6
1392 Schouten 00:00:00 6
1393 Langkawi 00:00:00 0
1394 Johejo 00:00:00 5
1395 SB escape team 00:00:00 4
1396 Veenendaaltjes 00:00:00 2
1397 Vogel 00:00:00 5
1398 Janine+maris 00:00:00 0
1399 DE FRANSWATJES 00:00:00 3
1400 Lensies 00:00:00 2
1401 Reinders 00:00:00 3
1402 Team Rob de Ruiter 00:00:00 5
1403 royco 00:00:00 1
1404 Westerinkjes 00:00:00 4
1405 The Flunx 00:00:00 10
1406 de vandaaltjes 00:00:00 6
1407 Banboekids 00:00:00 8
1408 Brouwer 00:00:00 12
1409 Kokken 00:00:00 12
1410 vandermeeralma 00:00:00 11
1411 Piemels253 00:00:00 8
1412 De reizigers 00:00:00 6
1413 JH 00:00:00 7
1414 Youpyoupyoup 00:00:00 0
1415 IJstaartjes 00:00:00 5
1416 Poeka’s 00:00:00 4
1417 Marcel en Lynn 00:00:00 4
1418 Hoogesteger 00:00:00 10
1419 Hartjes 00:00:00 6
1420 WES&FEM 00:00:00 6
1421 van den Bergjes 00:00:00 9
1422 Billy&Bollie 00:00:00 6
1423 Ynemaatjes 00:00:00 7
1424 De popcorn poppers 00:00:00 5
1425 Prinsjes 00:00:00 12
1426 Werfjes 00:00:00 12
1427 Mat 00:00:00 0
1428 RB&RB 00:00:00 0
1429 Hagels 00:00:00 4
1430 De Bekertjes 00:00:00 4
1431 Abcouwers 00:00:00 7
1432 Huisje77 00:00:00 7
1433 De Chickies 00:00:00 11
1434 Eekhoorntjes 00:00:00 3
1435 Snelle Brauny's 00:00:00 5
1436 Beushuis 00:00:00 0
1437 Viskraam 00:00:00 3
1438 josan 00:00:00 6
1439 Loetje 00:00:00 7
1440 Niet voor de poes 00:00:00 3
1441 BerlicumPernis 00:00:00 4
1442 Boermannetjes 00:00:00 9
1443 Fam. Power 00:00:00 8
1444 Boris BOEFJES 00:00:00 5
1445 Naccers 00:00:00 6
1446 Realna 00:00:00 5
1447 De Escape-aapjes 00:00:00 10
1448 De Gorties! 00:00:00 1
1449 De Pindakaasjes 00:00:00 4
1450 Autoservicekole 00:00:00 6
1451 De Lions 00:00:00 8
1452 Familieoost! 00:00:00 12
1453 OSG 00:00:00 4
1454 TheFamily 00:00:00 11
1455 Sundaymorning 00:00:00 8
1456 Kwizzwizz 00:00:00 1
1457 Team van Muijen 00:00:00 8
1458 Amsterdam West 00:00:00 10
1459 kabouters 00:00:00 10
1460 De Kr@kers 00:00:00 4
1461 Beukenootjes 00:00:00 4
1462 Goldies 00:00:00 5
1463 Eierpower 00:00:00 5
1464 Test 00:00:00 1
1465 Tobies 00:00:00 6
1466 Ritzerflits 00:00:00 6
1467 Bosjes 00:00:00 10
1468 Licky 00:00:00 7
1469 De Glasjes 00:00:00 5
1470 Erbera216 00:00:00 8
1471 ijtjes 00:00:00 2
1472 Het droomteam 00:00:00 10
1473 Oost 00:00:00 12
1474 Boekel//Gols 00:00:00 5
1475 Brownies 00:00:00 12
1476 HOLY TRINITY 00:00:00 9
1477 we laten ons niet kisten! 00:00:00 8
1478 Versteeg bv 00:00:00 10
1479 Korfies 00:00:00 5
1480 Droge worsten 00:00:00 5
1481 Limari 00:00:00 11
1482 Homburg 00:00:00 1
1483 Verbeekjes 00:00:00 11
1484 Klimmers min 1 00:00:00 8
1485 Familie van Waes 00:00:00 12
1486 Catering de Groot 00:00:00 3
1487 De Dikketives 00:00:00 8
1488 Luuk pro 00:00:00 6
1489 brisa 00:00:00 12
1490 Maasdammertjes 00:00:00 9
1491 222 00:00:00 8
1492 koppelhoentje 00:00:00 11
1493 Bende van Ellende 00:00:00 9
1494 Molletjes 00:00:00 0
1495 Jansen 00:00:00 4
1496 Mysterie W51 00:00:00 7
1497 Ouderkerkjes 00:00:00 9
1498 Zeewolde 00:00:00 3
1499 Denkers 00:00:00 2
1500 Jimmy 00:00:00 6
1501 De geheimzinnige club 00:00:00 4
1502 KAAS 00:00:00 4
1503 Sukkels 00:00:00 7
1504 Vasco 00:00:00 5
1505 The Bugs 00:00:00 8
1506 Fredjes 00:00:00 8
1507 de Kuikentjes 00:00:00 6
1508 - 00:00:00 4
1509 Spierenburgclan 00:00:00 7
1510 Sjanies 00:00:00 3
1511 Huisnummer 68 00:00:00 6
1512 La Familia 00:00:00 5
1513 Harem 00:00:00 5
1514 Camping tokkies 00:00:00 12
1515 Animatie team Kuierpad 2021 00:00:00 2
1516 Hatseflats 00:00:00 12
1517 De gompies 00:00:00 11
1518 Zeeuwtjes 00:00:00 9
1519 Flipsen 00:00:00 6
1520 Roggeveenstreetjes 00:00:00 9
1521 Klos 00:00:00 8
1522 Hhw072 00:00:00 7
1523 Siek & Krul 00:00:00 4
1524 zwijnen 00:00:00 3
1525 FIOD 00:00:00 4
1526 Lonzo 00:00:00 4
1527 Half seuvm 00:00:00 4
1528 JarigeJoost 00:00:00 1
1529 De onesies 00:00:00 10
1530 Friesland 00:00:00 6
1531 De douane 00:00:00 10
1532 Malden's Hoop 00:00:00 6
1533 Yin14jaar 00:00:00 8
1534 Boel 00:00:00 9
1535 VdH 00:00:00 10
1536 De Kort Kanjers 00:00:00 4
1537 Codekrakers 00:00:00 10
1538 Stello 00:00:00 12
1539 515 JACUZZIHOUSE 00:00:00 8
1540 Vrouwluu 00:00:00 9
1541 Leussink 00:00:00 4
1542 Tedd 00:00:00 4
1543 Krooijkjes 00:00:00 11
1544 Brem 00:00:00 10
1545 Plusjes 00:00:00 9
1546 Team escape BRS 00:00:00 10
1547 Boyoos 00:00:00 5
1548 Souren 00:00:00 6
1549 Kalka 00:00:00 11
1550 Kistslopers 00:00:00 6
1551 Utnaaiers en utbukers 00:00:00 8
1552 TRYEJMK 00:00:00 1
1553 Penamalo 00:00:00 6
1554 De Buurtjes 00:00:00 3
1555 De Gerdaas 00:00:00 4
1556 wilbie 00:00:00 8
1557 FAM VD KOLK 00:00:00 4
1558 De brunies 00:00:00 4
1559 Grootenleeuw 00:00:00 9
1560 MaLiNyJo 00:00:00 8
1561 De dijkjes 00:00:00 11
1562 Remco en Esther 00:00:00 12
1563 De Hermansjes 00:00:00 7
1564 50 jaar getrouwd 00:00:00 6
1565 Hoogeveen 00:00:00 5
1566 De kukelekuutjes 00:00:00 12
1567 Golden Gangsters 119 00:00:00 3
1568 Die DELLER-Kids 00:00:00 6
1569 De pilspiraten 00:00:00 5
1570 Postma 00:00:00 12
1571 FreePuck 00:00:00 5
1572 Hallinkies 00:00:00 2
1573 Voorentjes 00:00:00 2
1574 De Kroontjes 00:00:00 12
1575 De jojo’s 00:00:00 12
1576 Jet en de oudjes 00:00:00 8
1577 De theekopjes 00:00:00 12
1578 MEPCLRY 00:00:00 6
1579 De teletubbies 00:00:00 1
1580 Mama’s en de papa’s 00:00:00 6
1581 De Krakende Kakkers 00:00:00 8
1582 Team Fokkers 00:00:00 4
1583 Team Worstebroodjes 00:00:00 7
1584 Jonkman 00:00:00 11
1585 Fam Rutten 00:00:00 4
1586 Baldadige hennies 00:00:00 9
1587 Fighters 00:00:00 1
1588 Klutertjes 00:00:00 7
1589 De pernukkels 00:00:00 10
1590 Heusies 00:00:00 12
1591 Veltkamp 00:00:00 11
1592 De Baarsjes 00:00:00 6
1593 Club Lindenburg 00:00:00 4
1594 Brookovich 00:00:00 12
1595 Yuki 00:00:00 4
1596 Genieters 00:00:00 5
1597 Wetserparkduifjes 00:00:00 0
1598 Peeterskes 00:00:00 3
1599 Gerrit & Kim 00:00:00 8
1600 DeMulders 00:00:00 11
1601 De elsbeek 00:00:00 10
1602 Smitne 00:00:00 4
1603 van Houtjes 821 00:00:00 4
1604 Marencis 00:00:00 8
1605 Hokkies 00:00:00 2
1606 Aardbei 00:00:00 4
1607 Amsterdam gang 00:00:00 8
1608 FEMELIE-H 00:00:00 8
1609 Uil 00:00:00 10
1610 Dekkertjes 00:00:00 10
1611 Boersmaatjes 00:00:00 12
1612 Nijsingh 00:00:00 7
1613 Appeltje biertje 00:00:00 12
1614 NOAH 00:00:00 11
1615 Kolibri 00:00:00 8
1616 Moleman 00:00:00 5
1617 Enweerdoor 00:00:00 6
1618 Henkies 00:00:00 7
1619 3 Musketiers 00:00:00 11
1620 Wappies 00:00:00 2
1621 Pluusjes01 00:00:00 12
1622 Vlotte mwannen 00:00:00 4
1623 DORGST! 00:00:00 9
1624 Halfje Wit 00:00:00 8
1625 Bryan 00:00:00 2
1626 De Bundy's 00:00:00 8
1627 Tafka282 00:00:00 3
1628 Snelle janne 00:00:00 4
1629 . 00:00:00 7
1630 De groene koetjes 00:00:00 12
1631 JoLaMiMa 00:00:00 3
1632 Cageman 00:00:00 12
1633 De aardappels 00:00:00 12
1634 AVLK 00:00:00 2
1635 Bijna slim 00:00:00 1
1636 Tokkies uit Monnickendam 00:00:00 12
1637 Hunters 00:00:00 12
1638 ramona 00:00:00 12
1639 De Wappies 00:00:00 5
1640 Unglaublich 00:00:00 11
1641 De Nachtegaaltjes 00:00:00 2
1642 kollies 00:00:00 1
1643 Noukies 00:00:00 8
1644 De 3 musketiers 00:00:00 7
1645 Kiekieks 00:00:00 2
1646 qwerty 00:00:00 4
1647 Vosco 00:00:00 5
1648 SnelMil 00:00:00 5
1649 Noorderboertjes 00:00:00 5
1650 TeamKreutzer 00:00:00 3
1651 The harbor detectives 00:00:00 8
1652 Vliegende mossels 00:00:00 1
1653 Cheesypop 00:00:00 4
1654 Molke-444 00:00:00 7
1655 De hoekschewaarders 00:00:00 5
1656 Kill the piñata 00:00:00 6
1657 Betty en patty 00:00:00 10
1658 DIEZE 00:00:00 9
1659 Piraten 00:00:00 8
1660 Klomp 00:00:00 10
1661 De Dombo,s 00:00:00 2
1662 Team Valerie 00:00:00 3
1663 Hogeling 00:00:00 0
1664 Langeberg 00:00:00 5
1665 Team kaya 00:00:00 5
1666 Veenestars 00:00:00 2
1667 3 coolste BFF’S 00:00:00 7
1668 Sherlock Hoos 00:00:00 4
1669 Dream team 00:00:00 3
1670 Roversbende 00:00:00 7
1671 Depoep 00:00:00 6
1672 Huisje305 00:00:00 7
1673 De smints 00:00:00 8
1674 Kloostertjes 00:00:00 12
1675 The Jacobs Family 00:00:00 7
1676 Sharks 00:00:00 4
1677 Snorlax 00:00:00 10
1678 Het is gezelliger zonder joey en tom 00:00:00 0
1679 KWEC 00:00:00 10
1680 SUSSYBAKA's 00:00:00 2
1681 PjÖtterclan 00:00:00 2
1682 Pannenkoeken 00:00:00 3
1683 Gare Gerries 00:00:00 0
1684 Vermeulentjes 00:00:00 11
1685 Poesjesclub 00:00:00 7
1686 Hovestadjes 00:00:00 10
1687 Berkstok 00:00:00 3
1688 Benkies 00:00:00 10
1689 Spruitjes4724 00:00:00 3
1690 Koekoek 00:00:00 6
1691 Wijnland 00:00:00 5
1692 3Xwijnen 00:00:00 6
1693 De Snelle Kippen 00:00:00 8
1694 Vetflikkers 00:00:00 2
1695 The Flugels 00:00:00 5
1696 Troostelingen 00:00:00 3
1697 Fuck de corona 00:00:00 0
1698 Robbedoes & Co 00:00:00 5
1699 2gether 00:00:00 6
1700 Boda 00:00:00 4
1701 Arends 00:00:00 8
1702 Dikke mieke 00:00:00 4
1703 Beleven avontuur 00:00:00 12
1704 Team Megchelen 00:00:00 6
1705 Zusters en zwagers 00:00:00 6
1706 Van Marion 00:00:00 8
1707 Team krab 00:00:00 12
1708 Wiebe60 00:00:00 5
1709 Lansinkjes 00:00:00 5
1710 Havenzangers 00:00:00 4
1711 De Slotties 00:00:00 5
1712 De vries 00:00:00 9
1713 Mais 00:00:00 2
1714 De Bhattoetjes 00:00:00 5
1715 Koekwauze 00:00:00 1
1716 Boeltjes 00:00:00 8
1717 Rupertjes 00:00:00 5
1718 C 00:00:00 4
1719 Escape Squad 00:00:00 11
1720 Ummy gang 00:00:00 5
1721 Bafaar 00:00:00 5
1722 Smarties 00:00:00 2
1723 De Sminkjes 00:00:00 9
1724 lolmans 00:00:00 8
1725 Bakx 00:00:00 2
1726 aerdts 00:00:00 3
1727 Kerstig 00:00:00 6
1728 Zijlstra Bolsward 00:00:00 8
1729 De Paupers 00:00:00 4
1730 Dappere dodo 00:00:00 3
1731 Kluijtjes 00:00:00 5
1732 Vossen 00:00:00 12
1733 Lasange 00:00:00 8
1734 Vakantiegangers 00:00:00 2
1735 Franken 00:00:00 7
1736 De kraanvogels 00:00:00 8
1737 Groen 00:00:00 2
1738 The stunters 00:00:00 3
1739 Dolly dota 00:00:00 2
1740 De 402 club 00:00:00 8
1741 Braampies 00:00:00 6
1742 Voogies 00:00:00 12
1743 De bonte ridders 00:00:00 8
1744 Postjes 00:00:00 8
1745 Snollebollekes 00:00:00 7
1746 Micmactrekbak 00:00:00 0
1747 Team Babyballa 00:00:00 4
1748 Sterrehiem 00:00:00 8
1749 Oudjes 00:00:00 4
1750 De Zwemmers 00:00:00 7
1751 De Gibanelclub 00:00:00 4
1752 Chaos 00:00:00 12
1753 Bosch 00:00:00 0
1754 NewYearsEve2021 00:00:00 5
1755 scottuutnham 00:00:00 4
1756 Elly 00:00:00 3
1757 B-Team 00:00:00 0
1758 De Engineers 00:00:00 2
1759 fam souverehren 00:00:00 2
1760 Kleinjan 00:00:00 1
1761 Waddenzee 00:00:00 0
1762 Poortvlietjes 00:00:00 9
1763 Het buikorakel 00:00:00 12
1764 Van der Linden 00:00:00 11
1765 De Bergjes 00:00:00 7
1766 De spijkerhaven 00:00:00 6
1767 Maasjes 00:00:00 7
1768 Rodel 00:00:00 10
1769 De uitglijders 00:00:00 5
1770 pink santa 00:00:00 1
1771 FamFaam 00:00:00 4
1772 Gekke Sweersjes 00:00:00 9
1773 Radij 00:00:00 12
1774 Dieseltjes 00:00:00 5
1775 Lange Cremertjes 00:00:00 12
1776 De oepies 00:00:00 7
1777 Juffertjes 00:00:00 10
1778 Stokxies 00:00:00 3
1779 Luc 00:00:00 5
1780 DieVanHuisje333 00:00:00 7
1781 Speurs 00:00:00 9
1782 Bruggen 00:00:00 9
1783 De stoere codekrakers 00:00:00 6
1784 tije en de rest 00:00:00 7
1785 Benbo 00:00:00 6
1786 Het kan friezen het kan dooien 00:00:00 9
1787 Kok-Duif 00:00:00 3
1788 K2 00:00:00 7
1789 Maatjes 00:00:00 6
1790 Lottijn 00:00:00 8
1791 VakantieClub99 00:00:00 12
1792 Stone Squad 00:00:00 2
1793 De inbrekers 00:00:00 10
1794 Billy de hond 00:00:00 8
1795 The Winners 00:00:00 7
1796 Aniek&Nick 00:00:00 4
1797 nederend 00:00:00 12
1798 De Bultjes 00:00:00 6
1799 De Houtense Duif 00:00:00 3
1800 Veekenwintaltijd 00:00:00 10
1801 Kaas 00:00:00 7
1802 Deernties 00:00:00 4
1803 Manage Rensen 00:00:00 7
1804 De twee musketiers 00:00:00 9
1805 The dogs 00:00:00 12
1806 Bird 00:00:00 7
1807 De voetballers 00:00:00 8
1808 De Nelissen Masters 00:00:00 9
1809 Hato 00:00:00 7
1810 Bruinberg 00:00:00 4
1811 Poldervaartjes 00:00:00 9
1812 Famklein 00:00:00 9
1813 Linschoters 00:00:00 3
1814 De toppers 00:00:00 7
1815 Tony and Ezekiel 00:00:00 11
1816 Fientje63 00:00:00 4
1817 De meulentjes 00:00:00 7
1818 Orakel 00:00:00 6
1819 De Gerrits 00:00:00 6
1820 de dordtsche schappenkoppen 00:00:00 4
1821 team sylvester 00:00:00 3
1822 De wessels 00:00:00 10
1823 Levi van kuijk 00:00:00 4
1824 Ijsvogel265 00:00:00 9
1825 Eaca 00:00:00 7
1826 De Woutertjes 00:00:00 6
1827 FjFj 00:00:00 9
1828 Team Kops 00:00:00 9
1829 Oelewappers 00:00:00 5
1830 Wiebeltenen 00:00:00 7
1831 Bouman 00:00:00 9
1832 Team Kuipers 00:00:00 11
1833 Brinknorg 00:00:00 5
1834 Craats 00:00:00 8
1835 The Bossies 00:00:00 11
1836 De amigo's 00:00:00 5
1837 Zusjes Huizer 00:00:00 6
1838 Arie 00:00:00 8
1839 De Melkjes 00:00:00 1
1840 DJ Swiep 00:00:00 5
1841 MVV Bro 00:00:00 10
1842 Team MARIJEE050 00:00:00 6
1843 Slimpe 00:00:00 10
1844 Rotterdam 00:00:00 5
1845 Spelletjesgekken 00:00:00 1
1846 Lely Astronaut 00:00:00 0
1847 605 00:00:00 12
1848 GruitBlom176 00:00:00 12
1849 Detectives Maij 00:00:00 7
1850 Schmitties 00:00:00 6
1851 De Bommeltjes 00:00:00 6
1852 Stoffels 00:00:00 6
1853 Pepsi 00:00:00 12
1854 Auke 00:00:00 2
1855 De Abcouboys and girls 00:00:00 11
1856 Blieje mollies 00:00:00 11
1857 Jokers 00:00:00 6
1858 Koolmeesjes 00:00:00 11
1859 De Vries 329 00:00:00 11
1860 Floortjes4 00:00:00 11
1861 Van Dalen 00:00:00 6
1862 Lenieminie 00:00:00 11
1863 Eisma 00:00:00 11
1864 Beerze! 00:00:00 7
1865 De bootjes 00:00:00 6
1866 Girlpower 00:00:00 3
1867 Lol 00:00:00 3
1868 Winterjes 00:00:00 6
1869 Neomi+2 00:00:00 12
1870 De Plattelandjes 00:00:00 8
1871 ToNi 00:00:00 4
1872 Fryslân Boppe 00:00:00 8
1873 De-kiddo’s. 00:00:00 9
1874 vliegende bergjes 00:00:00 12
1875 Dubbel D 00:00:00 0
1876 De Laatjes 00:00:00 1
1877 Skippy 00:00:00 1
1878 Scapers 00:00:00 1
1879 Frank 00:00:00 6
1880 Korenhaan079 00:00:00 12
1881 Stromannetjes 00:00:00 9
1882 Jonkhof 00:00:00 8
1883 delangetjes 00:00:00 9
1884 Mammie 00:00:00 12
1885 De gangster kikkers 00:00:00 3
1886 TheMoos 00:00:00 9
1887 Hatseflays 00:00:00 12
1888 Casa Gluteus Maximus 00:00:00 1
1889 De Ontdekkers 00:00:00 6
1890 Meivakantie 00:00:00 6
1891 noegie noegie 00:00:00 11
1892 Bovengemiddeld 00:00:00 7
1893 Wouterse 00:00:00 8
1894 de Berkelaars 00:00:00 5
1895 spek en bonen 00:00:00 8
1896 De Buutsies 00:00:00 3
1897 TiSu 00:00:00 3
1898 JessTho 00:00:00 2
1899 't Zwarte Geld 00:00:00 2
1900 Lurkies 00:00:00 5
1901 Kooitjes 00:00:00 4
1902 F 00:00:00 10
1903 Rolf 00:00:00 10
1904 Sander AnneMarie 00:00:00 9
1905 VeenBoer 00:00:00 9
1906 De Ijsvogels 00:00:00 9
1907 Om dat het kan 00:00:00 6
1908 Dat was de wasmachine 00:00:00 12
1909 Anja Horster 00:00:00 3
1910 Bende van 4 00:00:00 7
1911 Kip 00:00:00 7
1912 Dejo777 00:00:00 6
1913 LENNIPS 00:00:00 12